GW5072 Weather Reports


time (UTC)temp
C
wind
direction
speed
KPH
gust
KPH
rain 1hr
cm
rain 24hr
cm
rain mn
cm
humidity
%
barometer
mb
20260903082017 25 314 0.0 0.0 0.00 2.49 0.13 97 1013.5
20260903081524 25 314 0.0 0.0 0.00 2.49 0.13 97 1013.5
20260903081006 25 314 0.0 0.0 0.00 2.49 0.13 97 1013.5
20260903080516 25 314 0.0 0.0 0.00 2.49 0.13 97 1013.5
20260903080024 25 314 0.0 0.0 0.00 2.49 0.13 97 1013.4
20260903075503 25 314 0.0 0.0 0.00 2.49 0.13 97 1013.4
20260903075015 25 314 0.0 0.0 0.00 2.49 0.13 97 1013.3
20260903074520 25 314 0.0 0.0 0.00 2.49 0.13 97 1013.3
20260903074015 25 314 0.0 0.0 0.00 2.49 0.13 97 1013.2
20260903073515 25 314 0.0 0.0 0.00 2.49 0.13 97 1013.2
20260903073017 25 314 0.0 0.0 0.00 2.49 0.13 97 1013.2
20260903072515 25 313 0.0 0.0 0.00 2.49 0.13 97 1013.3
20260903072011 25 314 0.0 0.0 0.00 2.49 0.13 97 1013.3
20260903071514 25 86 0.0 0.0 0.00 2.49 0.13 97 1013.3
20260903071011 25 86 0.0 0.0 0.00 2.49 0.13 97 1013.4
20260903070510 25 86 0.0 0.0 0.00 2.49 0.13 97 1013.4
20260903070033 25 86 0.0 0.0 0.03 2.49 0.13 97 1013.4
20260903065512 25 86 0.0 0.0 0.03 2.49 0.13 97 1013.5
20260903065013 25 86 0.0 0.0 0.03 2.49 0.13 97 1013.6
20260903064531 25 86 0.0 0.0 0.03 2.49 0.13 97 1013.6
20260903064011 25 86 0.0 0.0 0.03 2.49 0.13 97 1013.6
20260903063522 25 86 0.0 0.0 0.03 2.49 0.13 97 1013.6
20260903063031 25 86 0.0 0.0 0.03 2.49 0.13 97 1013.6
20260903062511 25 86 0.0 0.0 0.03 2.49 0.13 97 1013.6
20260903062017 25 86 0.0 0.0 0.03 2.49 0.13 97 1013.7
20260903061535 25 86 0.0 0.0 0.05 2.49 0.13 97 1013.8
20260903061019 25 86 0.0 0.0 0.05 2.49 0.13 97 1013.8
20260903060517 25 86 0.0 0.0 0.10 2.49 0.13 97 1013.7
20260903060037 25 86 0.0 0.0 0.10 2.46 0.10 97 1013.9
20260903055515 25 86 0.0 0.0 0.13 2.46 0.10 97 1013.9
20260903055015 25 86 0.0 0.0 0.13 2.46 0.10 97 1013.9
20260903054523 25 86 0.0 0.0 0.15 2.46 0.10 97 1013.9
20260903054014 24 86 0.0 0.0 0.15 2.46 0.10 97 1014.2
20260903053513 24 86 0.0 0.0 0.15 2.46 0.10 97 1014.2
20260903053029 24 86 0.0 0.0 0.15 2.46 0.10 97 1014.2
20260903052516 24 86 0.0 0.0 0.15 2.46 0.10 97 1014.2
20260903052014 24 86 0.0 0.0 0.15 2.46 0.10 97 1014.4
20260903051536 24 86 0.0 0.0 0.13 2.44 0.08 97 1014.5
20260903051015 24 86 0.0 0.0 0.13 2.44 0.08 97 1014.8
20260903050511 24 86 0.0 0.0 0.08 2.39 0.03 97 1014.9
20260903050035 24 86 0.0 0.0 0.05 2.36 0.00 97 1014.9
20260903045517 24 86 0.0 0.0 0.05 2.34 2.34 97 1014.9
20260903045016 24 86 0.0 0.0 0.05 2.34 2.34 96 1014.9
20260903044531 24 86 0.0 0.0 0.03 2.31 2.31 97 1014.9
20260903044012 24 86 0.0 0.0 0.03 2.31 2.31 96 1014.9
20260903043518 24 86 0.0 0.0 0.03 2.31 2.31 96 1015.0
20260903043035 24 86 0.0 0.0 0.03 2.31 2.31 96 1015.1
20260903042511 24 86 0.0 0.0 0.03 2.31 2.31 96 1015.2
20260903042022 24 86 0.0 0.0 0.03 2.31 2.31 96 1015.3
20260903041531 24 86 0.0 0.0 0.03 2.31 2.31 96 1015.4
20260903041019 24 86 0.0 0.0 0.03 2.31 2.31 96 1015.4
20260903040517 24 86 0.0 0.0 0.03 2.31 2.31 96 1015.6
20260903040034 24 86 0.0 0.0 0.03 2.31 2.31 96 1015.5
20260903035517 24 86 0.0 0.0 0.00 2.29 2.29 96 1015.7
20260903035016 24 86 0.0 0.0 0.00 2.29 2.29 96 1015.5
20260903034524 24 86 0.0 0.0 0.00 2.29 2.29 96 1015.2
20260903034016 24 86 0.0 0.0 0.00 2.29 2.29 96 1015.1
20260903033515 24 86 0.0 0.0 0.00 2.29 2.29 96 1015.1
20260903033032 24 86 0.0 0.0 0.00 2.29 2.29 96 1014.9
20260903032515 24 86 0.0 0.0 0.00 2.29 2.29 96 1014.6
20260903032018 24 86 0.0 0.0 0.00 2.29 2.29 96 1014.4
20260903031534 24 86 0.0 0.0 0.00 2.29 2.29 96 1014.4
20260903031015 24 86 0.0 0.0 0.00 2.29 2.29 96 1014.4
20260903030512 24 86 0.0 0.0 0.00 2.29 2.29 96 1014.4
20260903030034 24 86 0.0 0.0 0.00 2.29 2.29 96 1014.3
20260903025519 24 86 0.0 0.0 0.00 2.29 2.29 96 1014.3
20260903025017 24 86 0.0 0.0 0.00 2.29 2.29 96 1014.2
20260903024531 24 86 0.0 0.0 0.00 2.29 2.29 96 1014.1
20260903024014 24 86 0.0 0.0 0.00 2.29 2.29 95 1014.1
20260903023517 24 86 0.0 0.0 0.00 2.29 2.29 95 1014.1
20260903023030 24 86 0.0 0.0 0.00 2.29 2.29 95 1014.0
20260903022518 24 86 0.0 0.0 0.00 2.29 2.29 95 1013.9
20260903022019 24 86 0.0 0.0 0.00 2.29 2.29 95 1013.7
20260903021528 24 86 0.0 0.0 0.00 2.29 2.29 95 1013.5
20260903021021 24 86 0.0 0.0 0.00 2.29 2.29 95 1013.4
20260903020517 24 86 0.0 0.0 0.00 2.29 2.29 95 1013.3
20260903020006 24 79 0.0 0.0 0.00 2.29 2.29 95 1013.1
20260903015509 24 82 0.0 0.0 0.00 2.29 2.29 95 1013.0
20260903015004 24 76 0.0 0.0 0.00 2.29 2.29 95 1013.0
20260903014503 24 81 0.0 0.0 0.00 2.29 2.29 95 1013.0
20260903014009 24 87 0.0 0.0 0.03 2.29 2.29 95 1013.1
20260903013504 24 76 0.0 0.0 0.08 2.29 2.29 95 1012.9
20260903013020 24 72 0.0 0.0 0.43 2.29 2.29 95 1012.8
20260903012505 24 90 0.0 1.6 1.45 2.29 2.29 95 1013.1
20260903012004 24 97 0.0 1.6 2.24 2.29 2.29 94 1013.0
20260903011519 24 106 0.0 1.6 2.29 2.29 2.29 94 1012.9
20260903011004 24 96 0.0 1.6 2.29 2.29 2.29 94 1013.2
20260903010504 24 68 0.0 4.8 2.29 2.29 2.29 93 1013.2
20260903010016 24 80 1.6 4.8 2.29 2.29 2.29 93 1013.2
20260903005504 25 98 0.0 6.4 2.29 2.29 2.29 93 1013.0
20260903005012 25 74 0.0 6.4 2.29 2.29 2.29 93 1013.1
20260903004520 25 68 1.6 4.8 2.29 2.29 2.29 93 1013.2
20260903004003 25 89 0.0 8.0 2.26 2.26 2.26 92 1013.0
20260903003510 25 93 0.0 8.0 2.21 2.21 2.21 92 1012.7
20260903003017 26 96 3.2 8.0 1.85 1.85 1.85 91 1012.4
20260903002517 26 49 0.0 8.0 0.84 0.84 0.84 89 1013.2
20260903002008 27 8 0.0 4.8 0.05 0.05 0.05 86 1013.3
20260903001517 27 286 0.0 1.6 0.00 0.00 0.00 83 1013.1
20260903001013 27 311 0.0 4.8 0.00 0.00 0.00 82 1012.8
20260903000505 27 301 0.0 6.4 0.00 0.00 0.00 81 1012.7
20260903000006 28 99 0.0 11.3 0.00 0.00 0.00 80 1012.3
20260902235510 28 339 0.0 11.3 0.00 0.00 0.00 77 1012.5
20260902235005 30 326 0.0 1.6 0.00 0.00 0.00 74 1012.3
20260902234526 30 18 0.0 0.0 0.00 0.00 0.00 74 1012.0
20260902234009 30 18 0.0 0.0 0.00 0.00 0.00 73 1011.7
20260902233504 30 18 0.0 0.0 0.00 0.00 0.00 73 1011.6
20260902233026 30 18 0.0 0.0 0.00 0.00 0.00 73 1011.4
20260902232503 29 310 0.0 3.2 0.00 0.00 0.00 73 1011.6
20260902232003 30 309 0.0 3.2 0.00 0.00 0.00 72 1011.8
20260902231526 30 345 0.0 3.2 0.00 0.00 0.00 71 1011.9
20260902230513 30 55 0.0 4.8 0.00 0.00 0.00 67 1011.7
20260902230019 31 129 0.0 4.8 0.00 0.00 0.00 66 1011.7
20260902225503 31 174 0.0 0.0 0.00 0.00 0.00 66 1011.6
20260902225015 31 91 0.0 1.6 0.00 0.00 0.00 66 1011.5
20260902224513 31 95 0.0 1.6 0.00 0.00 0.00 66 1011.7
20260902224016 31 77 0.0 4.8 0.00 0.00 0.00 65 1011.6
20260902223509 32 22 0.0 4.8 0.00 0.00 0.00 63 1011.7
20260902223010 32 327 0.0 1.6 0.00 0.00 0.00 63 1011.8
20260902222517 32 317 0.0 1.6 0.00 0.00 0.00 62 1011.7
20260902222010 33 58 0.0 1.6 0.00 0.00 0.00 62 1011.7
20260902221509 33 64 0.0 1.6 0.00 0.00 0.00 60 1011.5
20260902221013 32 82 0.0 0.0 0.00 0.00 0.00 61 1011.6
20260902220507 32 81 0.0 0.0 0.00 0.00 0.00 63 1011.5
20260902220041 32 82 0.0 0.0 0.00 0.00 0.00 65 1011.2
20260902215512 32 81 0.0 1.6 0.00 0.00 0.00 66 1011.3
20260902215006 32 82 0.0 6.4 0.00 0.00 0.00 66 1011.5
20260902214532 32 136 0.0 6.4 0.00 0.00 0.00 64 1011.6
20260902214008 33 27 0.0 3.2 0.00 0.00 0.00 62 1011.7
20260902213504 33 209 0.0 1.6 0.00 0.00 0.00 59 1011.7
20260902213026 33 101 0.0 1.6 0.00 0.00 0.00 59 1011.7
20260902212507 33 99 0.0 1.6 0.00 0.00 0.00 59 1011.6
20260902212014 34 99 0.0 6.4 0.00 0.00 0.00 59 1011.8
20260902211523 35 89 0.0 6.4 0.00 0.00 0.00 57 1011.8
20260902211006 35 115 0.0 6.4 0.00 0.00 0.00 54 1012.0
20260902210514 35 120 0.0 9.7 0.00 0.00 0.00 53 1011.9
20260902210040 35 217 0.0 9.7 0.00 0.00 0.00 53 1012.0
20260902205503 35 56 0.0 4.8 0.00 0.00 0.00 54 1012.0
20260902205014 35 214 0.0 4.8 0.00 0.00 0.00 54 1011.9
20260902204517 35 110 0.0 4.8 0.00 0.00 0.00 54 1012.0
20260902204016 35 259 0.0 3.2 0.00 0.00 0.00 54 1012.1
20260902203512 35 199 0.0 4.8 0.00 0.00 0.00 53 1012.1
20260902203014 35 254 0.0 4.8 0.00 0.00 0.00 53 1012.0
20260902202515 36 209 0.0 4.8 0.00 0.00 0.00 52 1012.2
20260902202007 36 111 0.0 6.4 0.00 0.00 0.00 52 1012.2
20260902201535 36 199 1.6 6.4 0.00 0.00 0.00 51 1012.1
20260902201010 36 238 0.0 8.0 0.00 0.00 0.00 52 1012.2
20260902200508 36 221 0.0 8.0 0.00 0.00 0.00 53 1012.3
20260902200028 36 266 0.0 16.1 0.00 0.00 0.00 51 1012.3
20260902195511 36 193 0.0 16.1 0.00 0.00 0.00 50 1012.3
20260902195006 36 219 0.0 8.0 0.00 0.00 0.00 50 1012.5
20260902194534 36 127 0.0 11.3 0.00 0.00 0.00 51 1012.7
20260902194007 36 176 0.0 11.3 0.00 0.00 0.00 53 1012.8
20260902193516 36 127 0.0 6.4 0.00 0.00 0.00 52 1012.9
20260902193026 36 140 0.0 8.0 0.00 0.00 0.00 53 1012.8
20260902192508 36 279 1.6 8.0 0.00 0.00 0.00 52 1013.0
20260902192016 36 198 0.0 8.0 0.00 0.00 0.00 51 1013.0
20260902191524 36 116 1.6 8.0 0.00 0.00 0.00 51 1013.2
20260902191007 36 250 0.0 8.0 0.00 0.00 0.00 51 1013.2
20260902190517 36 212 0.0 4.8 0.00 0.00 0.00 51 1013.3
20260902190025 36 228 0.0 4.8 0.00 0.00 0.00 51 1013.4
20260902185514 36 258 0.0 8.0 0.00 0.00 0.00 52 1013.4
20260902185014 36 231 0.0 8.0 0.00 0.00 0.00 53 1013.4
20260902184521 36 234 0.0 4.8 0.00 0.00 0.00 52 1013.5
20260902184018 36 231 0.0 6.4 0.00 0.00 0.00 53 1013.7
20260902183511 36 234 0.0 6.4 0.00 0.00 0.00 51 1013.7
20260902183032 36 196 0.0 8.0 0.00 0.00 0.00 51 1013.8
20260902182517 37 155 0.0 8.0 0.00 0.00 0.00 50 1013.9
20260902182010 37 113 1.6 8.0 0.00 0.00 0.00 49 1014.0
20260902181530 37 227 1.6 3.2 0.00 0.00 0.00 51 1014.1
20260902181018 37 8 0.0 6.4 0.00 0.00 0.00 52 1014.1
20260902180508 37 219 0.0 6.4 0.00 0.00 0.00 51 1014.2
20260902180031 37 267 0.0 9.7 0.00 0.00 0.00 52 1014.4
20260902175510 37 264 1.6 9.7 0.00 0.00 0.00 53 1014.5
20260902175018 36 283 1.6 6.4 0.00 0.00 0.00 54 1014.6
20260902174530 36 274 0.0 6.4 0.00 0.00 0.00 56 1014.7
20260902174009 36 231 0.0 4.8 0.00 0.00 0.00 57 1014.9
20260902173517 35 184 0.0 9.7 0.00 0.00 0.00 58 1014.9
20260902173024 35 236 0.0 9.7 0.00 0.00 0.00 62 1015.0
20260902172508 34 157 1.6 8.0 0.00 0.00 0.00 60 1015.0
20260902172019 33 226 0.0 4.8 0.00 0.00 0.00 61 1015.2
20260902171525 33 251 0.0 4.8 0.00 0.00 0.00 64 1015.3
20260902171017 33 275 0.0 3.2 0.00 0.00 0.00 67 1015.3
20260902170515 32 212 0.0 3.2 0.00 0.00 0.00 67 1015.3
20260902170019 32 264 0.0 3.2 0.00 0.00 0.00 67 1015.5
20260902165503 32 205 0.0 1.6 0.00 0.00 0.00 69 1015.6
20260902165003 32 267 0.0 1.6 0.00 0.00 0.00 70 1015.6
20260902164518 32 205 0.0 1.6 0.00 0.00 0.00 70 1015.5
20260902164004 32 265 0.0 1.6 0.00 0.00 0.00 70 1015.6
20260902163511 31 284 0.0 3.2 0.00 0.00 0.00 71 1015.6
20260902163019 31 230 0.0 3.2 0.00 0.00 0.00 72 1015.6
20260902162504 31 216 0.0 3.2 0.00 0.00 0.00 73 1015.7
20260902162011 31 226 0.0 12.9 0.00 0.00 0.00 72 1015.7
20260902161512 31 227 1.6 12.9 0.00 0.00 0.00 72 1015.7
20260902161003 31 214 0.0 4.8 0.00 0.00 0.00 73 1015.7
20260902160507 31 263 0.0 8.0 0.00 0.00 0.00 76 1015.7
20260902160010 31 252 1.6 8.0 0.00 0.00 0.00 76 1015.6
20260902155513 30 278 0.0 8.0 0.00 0.00 0.00 78 1015.6
20260902155008 30 259 0.0 8.0 0.00 0.00 0.00 79 1015.6
20260902154505 29 243 0.0 1.6 0.00 0.00 0.00 80 1015.6
20260902154012 28 257 0.0 3.2 0.00 0.00 0.00 83 1015.7
20260902153504 28 247 0.0 3.2 0.00 0.00 0.00 83 1015.7
20260902153007 28 230 0.0 1.6 0.00 0.00 0.00 83 1015.8
20260902152509 28 221 0.0 3.2 0.00 0.00 0.00 83 1015.8
20260902152011 28 223 0.0 3.2 0.00 0.00 0.00 84 1015.8
20260902151524 28 232 0.0 3.2 0.00 0.00 0.00 84 1015.8
20260902151007 28 258 0.0 1.6 0.00 0.00 0.00 85 1015.8
20260902150503 27 238 0.0 1.6 0.00 0.00 0.00 85 1015.8
20260902150023 27 214 0.0 1.6 0.00 0.00 0.00 86 1015.9
20260902145505 27 240 0.0 1.6 0.00 0.00 0.00 86 1015.7
20260902145016 27 255 0.0 4.8 0.00 0.00 0.00 86 1015.7
20260902144533 27 219 0.0 4.8 0.00 0.00 0.00 87 1015.7
20260902144003 27 191 0.0 3.2 0.00 0.00 0.00 87 1015.8
20260902143513 27 262 0.0 3.2 0.00 0.00 0.00 88 1015.8
20260902143017 27 203 0.0 1.6 0.00 0.00 0.00 88 1015.8
20260902142504 26 209 0.0 1.6 0.00 0.00 0.00 88 1015.8
20260902142010 26 222 0.0 1.6 0.00 0.00 0.00 88 1015.7
20260902141513 26 249 0.0 3.2 0.00 0.00 0.00 88 1015.8
20260902141016 26 166 0.0 3.2 0.00 0.00 0.00 88 1015.7
20260902140510 26 214 0.0 1.6 0.00 0.00 0.00 89 1015.7
20260902140010 26 212 0.0 0.0 0.00 0.00 0.00 89 1015.6
20260902135511 26 212 0.0 3.2 0.00 0.00 0.00 89 1015.6
20260902135009 26 214 0.0 3.2 0.00 0.00 0.00 89 1015.7
20260902134507 26 221 0.0 1.6 0.00 0.00 0.00 89 1015.7
20260902134011 26 221 0.0 1.6 0.00 0.00 0.00 89 1015.6
20260902133509 26 221 0.0 1.6 0.00 0.00 0.00 89 1015.6
20260902133027 26 148 0.0 1.6 0.00 0.00 0.00 89 1015.6
20260902132511 26 223 0.0 1.6 0.00 0.00 0.00 89 1015.5
20260902132009 26 227 0.0 1.6 0.00 0.00 0.00 89 1015.5
20260902131527 26 212 0.0 0.0 0.00 0.00 0.00 89 1015.4
20260902131007 26 212 0.0 0.0 0.00 0.00 0.00 89 1015.3
20260902130503 26 176 0.0 3.2 0.00 0.00 0.00 90 1015.3
20260902130032 26 227 0.0 3.2 0.00 0.00 0.00 90 1015.2
20260902125508 26 223 0.0 1.6 0.00 0.00 0.00 90 1015.1
20260902125016 26 230 0.0 1.6 0.00 0.00 0.00 90 1015.0
20260902124525 26 223 0.0 3.2 0.00 0.00 0.00 90 1015.0
20260902124005 26 221 0.0 3.2 0.00 0.00 0.00 90 1014.9
20260902123511 26 247 0.0 3.2 0.00 0.00 0.00 90 1014.7
20260902123017 26 221 0.0 3.2 0.00 0.00 0.00 90 1014.5
20260902122516 26 237 0.0 1.6 0.00 0.00 0.00 90 1014.4
20260902122013 26 222 0.0 1.6 0.00 0.00 0.00 90 1014.2
20260902121514 26 217 0.0 1.6 0.00 0.00 0.00 90 1014.1
20260902121019 26 267 0.0 1.6 0.00 0.00 0.00 90 1013.9
20260902120511 26 223 0.0 1.6 0.00 0.00 0.00 90 1013.9
20260902120011 26 241 0.0 1.6 0.00 0.00 0.00 89 1013.9
20260902115513 26 224 0.0 1.6 0.00 0.00 0.00 89 1014.0
20260902115010 26 224 0.0 1.6 0.00 0.00 0.00 89 1014.0
20260902114534 26 227 0.0 1.6 0.00 0.00 0.00 89 1013.9
20260902114014 26 248 0.0 1.6 0.00 0.00 0.00 89 1013.9
20260902113507 26 264 0.0 1.6 0.00 0.00 0.00 89 1013.9
20260902113030 26 226 0.0 1.6 0.00 0.00 0.00 89 1013.8
20260902112512 26 240 0.0 1.6 0.00 0.00 0.00 88 1013.8
20260902112012 26 224 0.0 1.6 0.00 0.00 0.00 88 1013.8
20260902111525 26 265 0.0 1.6 0.00 0.00 0.00 88 1013.8
20260902111008 26 265 0.0 1.6 0.00 0.00 0.00 88 1013.8
20260902110515 26 262 0.0 1.6 0.00 0.00 0.00 88 1013.8
20260902110026 26 238 0.0 1.6 0.00 0.00 0.00 88 1013.9
20260902105507 26 229 0.0 1.6 0.00 0.00 0.00 88 1013.9
20260902105003 26 233 0.0 1.6 0.00 0.00 0.00 88 1013.9
20260902104535 26 217 0.0 1.6 0.00 0.00 0.00 88 1013.9
20260902104009 26 236 0.0 1.6 0.00 0.00 0.00 87 1014.0
20260902103515 26 243 0.0 1.6 0.00 0.00 0.00 87 1014.0
20260902103021 26 234 0.0 1.6 0.00 0.00 0.00 87 1014.0
20260902102504 26 233 0.0 1.6 0.00 0.00 0.00 86 1013.9
20260902102014 26 233 0.0 1.6 0.00 0.00 0.00 86 1013.9
20260902101527 26 232 0.0 1.6 0.00 0.00 0.00 86 1013.9
20260902101003 26 240 0.0 1.6 0.00 0.00 0.00 86 1013.8
20260902100511 26 237 0.0 1.6 0.00 0.00 0.00 86 1013.9
20260902100012 26 238 0.0 1.6 0.00 0.00 0.00 86 1013.9
20260902095514 26 244 0.0 1.6 0.00 0.00 0.00 85 1014.0
20260902095011 26 239 0.0 1.6 0.00 0.00 0.00 85 1014.0
20260902094508 26 219 0.0 1.6 0.00 0.00 0.00 85 1014.0
20260902094014 26 215 0.0 0.0 0.00 0.00 0.00 85 1014.1
20260902093508 26 215 0.0 1.6 0.00 0.00 0.00 85 1014.0
20260902093006 26 214 0.0 1.6 0.00 0.00 0.00 85 1014.0
20260902092510 26 227 0.0 1.6 0.00 0.00 0.00 85 1013.9
20260902092012 26 219 0.0 1.6 0.00 0.00 0.00 85 1014.0
20260902091526 26 219 0.0 1.6 0.00 0.00 0.00 85 1013.9
20260902091011 26 283 0.0 0.0 0.00 0.00 0.00 85 1013.9
20260902090504 26 283 0.0 0.0 0.00 0.00 0.00 85 1013.9
20260902090026 26 311 0.0 3.2 0.00 0.00 0.00 85 1013.9
20260902085508 26 30 0.0 3.2 0.00 0.00 0.00 85 1013.9
20260902085004 26 212 0.0 0.0 0.00 0.00 0.00 84 1014.0
20260902084525 26 212 0.0 1.6 0.00 0.00 0.00 84 1013.9
20260902084010 26 212 0.0 1.6 0.00 0.00 0.00 84 1013.9
20260902083514 26 210 0.0 0.0 0.00 0.00 0.00 83 1013.8
20260902083023 26 215 0.0 0.0 0.00 0.00 0.00 83 1013.8
20260902082504 26 215 0.0 0.0 0.00 0.00 0.00 83 1013.7